Weather History for Dunkirk, NY

Change the Weather History Date:

Tuesday, October 16, 2012

  Actual Average Record
Temperature  
Mean Temperature 44 °F -  
Max Temperature 50 °F 62 °F 83 °F (1947)
Min Temperature 37 °F 45 °F 30 °F (1940)
Degree Days  
Heating Degree Days 22    
Moisture  
Dew Point 38 °F    
Average Humidity 73    
Maximum Humidity 93    
Minimum Humidity 59    
Precipitation  
Precipitation 0.00 in - - ()
Sea Level Pressure  
Sea Level Pressure 29.91 in    
Wind  
Wind Speed 9 mph (WNW)    
Max Wind Speed 15 mph    
Max Gust Speed 22 mph    
Visibility 10 miles    
Events      
Averages and records for this station are not official NWS values.
T = Trace of Precipitation, MM = Missing Value Source: NWS Daily Summary

Daily Weather History Graph

Daily Weather History Graph

Search for Another Location

Airport:

Trip Planner

Search our weather history database for the weather conditions in past years. The results will help you decide how hot, cold, wet, or windy it might be!

Date:

Astronomy

Oct. 16, 2012 Rise Set
Actual Time 7:31 AM EDT 6:32 PM EDT
Civil Twilight 7:03 AM EDT 7:00 PM EDT
Nautical Twilight 6:30 AM EDT 7:33 PM EDT
Astronomical Twilight 5:58 AM EDT 8:06 PM EDT
Moon 8:55 AM EDT (10/16) 7:12 PM EDT (10/16)
Length of Visible Light 11h 57m
Length of Day
11h 00m
New Moon, 2% of the Moon is Illuminated
Oct 16
New Moon
Oct 21
First Quarter
Oct 29
Full
Nov 6
Last Quarter
Nov 13
New

Hourly Weather History & Observations

Time (EDT) Temp. Windchill Dew Point Humidity Pressure Visibility Wind Dir Wind Speed Gust Speed Precip Events Conditions
12:16 AM 48.2 °F - 41.0 °F 76% 29.86 in 10.0 mi NW 9.2 mph - N/A   Overcast
12:41 AM 48.2 °F - 41.0 °F 76% 29.86 in 10.0 mi NW 11.5 mph 19.6 mph N/A   Overcast
12:53 AM 48.0 °F - 41.0 °F 77% 29.87 in 10.0 mi WNW 9.2 mph - N/A   Overcast
1:53 AM 48.9 °F - 39.9 °F 71% 29.88 in 10.0 mi WNW 9.2 mph 18.4 mph N/A   Overcast
2:53 AM 48.0 °F - 41.0 °F 77% 29.88 in 10.0 mi WNW 8.1 mph - N/A   Overcast
3:53 AM 48.0 °F - 39.9 °F 74% 29.88 in 10.0 mi WNW 15.0 mph 21.9 mph N/A   Overcast
4:53 AM 48.0 °F - 39.0 °F 71% 29.89 in 10.0 mi NW 15.0 mph 18.4 mph N/A   Overcast
5:53 AM 48.0 °F - 37.9 °F 68% 29.89 in 10.0 mi NW 11.5 mph 17.3 mph N/A   Overcast
6:53 AM 46.9 °F - 39.0 °F 74% 29.90 in 10.0 mi NW 8.1 mph - N/A   Overcast
7:48 AM 46.4 °F 41.1 °F 39.2 °F 76% 29.91 in 10.0 mi NW 11.5 mph 18.4 mph N/A   Mostly Cloudy
8:26 AM 46.4 °F 42.4 °F 39.2 °F 76% 29.92 in 10.0 mi NW 8.1 mph - N/A   Overcast
8:53 AM 46.9 °F - 39.9 °F 77% 29.94 in 10.0 mi NW 9.2 mph - N/A   Mostly Cloudy
9:12 AM 48.2 °F - 39.2 °F 71% 29.93 in 10.0 mi NNW 8.1 mph - N/A   Scattered Clouds
9:53 AM 48.0 °F - 39.9 °F 74% 29.96 in 10.0 mi NW 8.1 mph - N/A   Mostly Cloudy
10:21 AM 48.2 °F - 39.2 °F 71% 29.94 in 10.0 mi NW 9.2 mph - N/A   Overcast
10:53 AM 48.9 °F - 37.9 °F 66% 29.96 in 10.0 mi WNW 8.1 mph - N/A   Mostly Cloudy
11:53 AM 48.9 °F - 37.0 °F 64% 29.96 in 10.0 mi NW 9.2 mph - N/A   Overcast
12:53 PM 50.0 °F - 36.0 °F 59% 29.95 in 10.0 mi West 8.1 mph - N/A   Overcast
1:31 PM 48.2 °F - 37.4 °F 66% 29.93 in 10.0 mi West 5.8 mph - N/A   Overcast
1:39 PM 50.0 °F - 37.4 °F 62% 29.93 in 10.0 mi West 10.4 mph 16.1 mph N/A   Overcast
1:53 PM 50.0 °F - 37.0 °F 61% 29.94 in 10.0 mi WSW 10.4 mph - N/A   Overcast
2:53 PM 50.0 °F - 37.9 °F 63% 29.93 in 10.0 mi WNW 8.1 mph - N/A   Overcast
3:53 PM 50.0 °F - 39.0 °F 66% 29.92 in 10.0 mi WSW 8.1 mph - N/A   Overcast
4:39 PM 50.0 °F - 39.2 °F 66% 29.90 in 10.0 mi WSW 9.2 mph - N/A   Overcast
4:53 PM 50.0 °F - 37.9 °F 63% 29.91 in 10.0 mi SW 8.1 mph - N/A   Overcast
5:53 PM 48.9 °F - 37.9 °F 66% 29.90 in 10.0 mi SW 4.6 mph - N/A   Clear
6:53 PM 43.0 °F - 37.9 °F 82% 29.90 in 10.0 mi Calm Calm - N/A   Clear
7:53 PM 39.9 °F 36.7 °F 37.0 °F 89% 29.90 in 10.0 mi SSE 4.6 mph - N/A   Clear
8:53 PM 39.0 °F - 36.0 °F 89% 29.90 in 10.0 mi Calm Calm - N/A   Clear
9:53 PM 39.9 °F - 36.0 °F 86% 29.89 in 10.0 mi Calm Calm - N/A   Clear
10:53 PM 37.0 °F - 35.1 °F 93% 29.89 in 9.0 mi Calm Calm - N/A   Clear
11:53 PM 37.0 °F - 35.1 °F 93% 29.88 in 10.0 mi Calm Calm - N/A   Clear